www.pogodaiklimat.ru
ПОГОДА в Фармингтоне
Время
и дата
02:56 05.02
03:56 05.02
04:56 05.02
05:56 05.02
06:56 05.02
07:56 05.02
08:56 05.02
09:56 05.02
10:56 05.02
11:56 05.02
12:56 05.02
13:56 05.02
14:56 05.02
15:56 05.02
16:56 05.02
17:56 05.02
18:56 05.02
19:56 05.02
20:56 05.02
21:56 05.02
22:56 05.02
23:56 05.02
00:56 06.02
01:56 06.02
02:56 06.02
03:56 06.02
04:56 06.02
05:56 06.02
06:56 06.02
07:56 06.02
08:56 06.02
09:56 06.02
10:56 06.02
11:56 06.02
12:56 06.02
13:56 06.02
14:56 06.02
15:56 06.02
16:56 06.02
17:56 06.02
18:56 06.02
19:21 06.02
19:52 06.02
19:56 06.02
20:56 06.02
21:56 06.02
22:53 06.02
22:56 06.02
Ветер
(напр.,м/с)
Видим. Явления Облачность Т
(С)
Тd
(С)
f
(%)
Тe
(С)
Тes
(С)
Комфортность P
(гПа)
Po
(гПа)
Тmin
(С)
Tmax
(С)
R
(мм)
R24
(мм)
S
(см)
ЮЗ 5 16 км ясно +2.8 -0.6 78 -2 -2 1019.9 983.9
ЮЗ 6 16 км ясно +3.3 -0.6 76 -2 -2 1019.3 983.2
ЮЗ 5
{8}
16 км ясно +2.8 -0.6 78 -2 -2 1019.3 983.2
ЮЗ 5 16 км ясно +2.8 -0.6 78 -2 -2 1018.6 982.9 +1.7 +3.3
Ю 2 16 км ясно +1.7 -1.1 82 -2 -2 1019.0 982.9
Ю 2 16 км ясно +2.2 -0.6 82 -1 -1 1019.4 983.5
нст 3 16 км ясно +6.7 +1.7 70 +4 +5 1019.8 983.9
З 4 16 км ясно +8.3 +1.1 60 +5 +7 1020.1 984.2
З 4 16 км ясно +11.7 +0.6 46 +10 +13 1020.3 984.5
СЗ 4 16 км ясно +13.3 0.0 40 +12 +17 1019.7 984.2 +1.1 +13.3
СЗ 4 16 км ясно +15.6 -1.7 30 +15 +20 1019.1 983.5
З 5 16 км ясно +15.6 -2.2 29 +15 +18 1019.0 983.5
СЗ 5
{9}
16 км ясно +15.6 -3.3 27 +15 +17 1019.3 983.9
СЗ 6 16 км ясно +15.6 -2.8 28 +14 +16 1019.7 984.2
СЗ 3 16 км ясно +13.9 -3.3 30 +13 +14 1020.2 984.5
штиль 0 16 км ясно +11.1 -3.9 35 +11 +11 1021.0 985.2 +10.6 +16.1
штиль 0 16 км ясно +8.3 -3.3 44 +8 +8 1022.1 986.2
штиль 0 16 км ясно +4.4 -3.3 57 +4 +4 1022.2 986.2
штиль 0 16 км ясно +3.3 -3.3 62 +3 +3 1022.5 986.5
штиль 0 16 км ясно +1.7 -3.3 69 +1 +1 1022.8 986.8
штиль 0 16 км ясно +0.6 -3.3 75 0 0 1022.8 986.8
штиль 0 16 км ясно -0.6 -3.3 82 -2 -2 1022.8 986.8 -1.1 +11.1
штиль 0 16 км ясно -0.6 -3.9 78 -2 -2 1022.5 986.8
СВ 4 16 км ясно -2.2 -4.4 85 -8 -8 1022.8 986.8
штиль 0 16 км ясно -3.3 -4.4 92 -4 -4 1023.1 987.1
штиль 0 16 км ясно -3.9 -5.6 88 -5 -5 1023.1 987.1
штиль 0 16 км ясно -3.9 -5.6 88 -5 -5 1023.2 987.1
штиль 0 16 км ясно -2.8 -4.4 89 -4 -4 1023.5 987.1 -4.4 -0.6
штиль 0 16 км ясно -3.9 -5.0 92 -5 -5 1023.5 987.1
штиль 0 16 км ясно -1.7 -3.9 85 -3 -3 1023.8 987.5
Ю 3 16 км ясно +4.4 +2.2 86 +1 +2 1023.1 987.1
ЮВ 4 16 км ясно +8.9 +5.0 77 +6 +8 1022.9 986.8
ЮВ 5 16 км ясно +11.7 +5.6 66 +9 +12 1022.3 986.5
Ю 10
{12}
16 км ясно +15.0 +2.2 42 +13 +13 1020.6 984.8 -4.4 +15.0
Ю 8
{12}
16 км ясно +15.6 +1.1 37 +14 +15 1018.8 983.2
Ю 6
{13}
16 км ясно +15.6 +0.6 36 +14 +17 1017.5 981.9
Ю 11
{14}
16 км ясно +15.0 +0.6 37 +13 +13 1016.9 981.2
Ю 10
{12}
16 км ясно +14.4 +5.0 53 +12 +12 1016.3 980.6
Ю 8
{11}
16 км 8/8 1020 м +13.3 +7.2 67 +11 +11 1015.8 979.9
Ю 7
{12}
16 км 8/8 780 м +12.8 +8.3 74 +10 +10 1015.2 979.6 +12.8 +16.1
Ю 8
{12}
16 км ясно +13.3 +8.9 75 +11 +11 1014.9 979.3
Ю 8
{12}
16 км 8/8 780 м +13.0 +9.0 77 +10 +10 979.0
Ю 7
{14}
16 км 5/5 780 м +13.0 +9.0 77 +10 +10 978.6
Ю 9
{12}
16 км 5/5 780 м +13.3 +8.9 75 +10 +10 1014.2 978.6
Ю 8
{11}
16 км 8/8 810 м +13.3 +8.9 75 +11 +11 1014.5 979.3
Ю 6
{9}
16 км 10/10 750 м +13.9 +8.9 72 +12 +12 1015.7 980.6
Ю 7
{10}
16 км 10/10 750 м +14.0 +9.0 72 +12 +12 980.6
Ю 6
{10}
16 км 10/10 750 м +13.9 +9.4 74 +12 +12 1015.6 980.6
Местоположение метеостанции Farmington Airport: широта 37.7667 долгота -90.4333 высота над уровнем моря 288 м.
В архиве по умолчанию представлена погода в Фармингтоне за последние 1-2 суток. Обновление информации о фактической погоде в базе происходит ежечасно! Архивные данные за месяц целиком и за предыдущие месяцы Вы можете получить, выбрав интересующий диапазон дат из раскрывающегося списка и нажав кнопку "Ввод!".
Внимание! Архив погоды МЕТАР в базе сайта по станциям, не включенным в климатический монитор, хранится не более 60 дней. Нет смысла пытаться выбрать более раннюю дату.
*Определитесь, кто Вы:
Внимание! Время в таблицах - местное (без учета летнего времени). Для получения всемирного времени необходимо вычесть поправку, которая равна -6 ч.
Смотрите также архив погоды в соседних городах и на ближайших метеорологических станциях:
Партнеры нашего сайта:      
Пояснения к столбцам:
  • Ветер - указаны скорость ветра в м/с - средняя за 10 мин, порывы в срок и между сроками (в фигурных скобках) и направление, откуда дует ветер: С - северный,
  • СВ - северо-восточный, В - восточный, ЮВ - юго-восточный, Ю - южный, ЮЗ - юго-западный, З - западный, СЗ - северо-западный.
  • Видимость - горизонтальная дальность видимости в метрах или километрах. При видимости от 1 до 10 км при отсутствии осадков обычно наблюдается дымка, при ухудшении видимости до 1 км и менее - туман. В сухую погоду видимость может ухудшаться дымом, пылью или мглою.
  • Явления - указаны атмосферные явления, наблюдавшиеся в срок или в последний час перед сроком; фигурными скобками обозначены явления, наблюдавшиеся между сроками (за 1-3 часа до срока); квадратными скобками обозначены град или гололедные отложения с указанием их диаметра в мм.
  • Облачность - указаны через наклонную черту общая и нижняя облачность в баллах и высота нижней границы облаков в метрах; квадратными скобками обозначены формы облаков: Ci - перистые, Cs - перисто-слоистые, Cc - перисто-кучевые, Ac - высококучевые, As - высокослоистые, Sc - слоисто-кучевые, Ns - слоисто-дождевые, Cu - кучевые, Cb - кучево-дождевые. Подробнее классификацию облаков см. в Атласе облаков (PDF).
  • T - Температура воздуха - температура, измеренная на высоте 2 м над землей.
  • Td - Температура точки росы - температура, при понижении до которой содержащийся в воздухе водяной пар достигнет насыщения.
  • f - Относительная влажность воздуха - влажноcть воздуха, измеренная на высоте 2 м над землей.
  • Te - Эффективная температура - температура, которую ощущает одетый по сезону человек в тени. Характеристика душности погоды. При расчете учитывается влияние влажности воздуха и скорости ветра на теплоощущения человека.
  • Tes - Эффективная температура на солнце - температура, которую ощущает человек, с поправкой на солнечный нагрев. Характеристика знойности погоды. Зависит от высоты солнца над горизонтом, облачности и скорости ветра. Ночью, в пасмурную погоду, а также при ветре 12 м/с и более поправка равна нулю.
  • P - Атмосферное давление - приведенное к уровню моря атмосферное давление.
  • Po - Атмосферное давление - измеренное на уровне метеостанции атмосферное давление.
  • Tmin - Минимальная температура - минимум температуры воздуха на высоте 2 м над землей.
  • Tmax - Максимальная температура - максимум температуры воздуха на высоте 2 м над землей.
  • R - Количество осадков - Количество выпавших осадков за период времени, мм. При наведении курсора мыши на число - период времени, за который выпало указанное количество осадков.
  • R24 - Количество осадков - Количество выпавших осадков за 24 часа, мм.
  • S - Снежный покров - Высота снежного покрова, см. При наведении курсора мыши на число - состояние снежного покрова и степень покрытия местности в баллах.